SWR9TP LSGG-LSZH

Flight info

Callsign SWR9TP
Flight time 0h 39m
Altitude 17000
Route SOSAL N871 BERSU
Aircraft A343/H-SDE2E3FGHIJ4J5M1RWXY/LB1D1

Departure

Time 2026-02-19 10:31
Airport Geneva International Airport (LSGG)

Arrival

Time 2026-02-19 11:10
Airport Zürich Airport (LSZH)
Time Latitude Longitude Altitude Speed Heading
2026-02-19 09:52 46.23430 6.10803 1379 ft 0 kts 135°
2026-02-19 10:15 46.23429 6.10805 1384 ft 0 kts 135°
2026-02-19 10:16 46.23428 6.10807 1384 ft 1 kts 135°
2026-02-19 10:16 46.23399 6.10875 1379 ft 1 kts 76°
2026-02-19 10:16 46.23401 6.10883 1380 ft 2 kts 73°
2026-02-19 10:17 46.23422 6.10939 1379 ft 11 kts 52°
2026-02-19 10:17 46.23491 6.11040 1379 ft 17 kts 45°
2026-02-19 10:17 46.23569 6.11153 1376 ft 6 kts 38°
2026-02-19 10:17 46.23589 6.11157 1377 ft 3 kts 358°
2026-02-19 10:18 46.23619 6.11135 1376 ft 7 kts 324°
2026-02-19 10:18 46.23670 6.11081 1377 ft 10 kts 339°
2026-02-19 10:18 46.23735 6.11124 1378 ft 12 kts 43°
2026-02-19 10:18 46.23808 6.11229 1378 ft 18 kts 45°
2026-02-19 10:19 46.23908 6.11376 1378 ft 22 kts 45°
2026-02-19 10:19 46.24023 6.11546 1372 ft 25 kts 46°
2026-02-19 10:19 46.24139 6.11715 1370 ft 23 kts 45°
2026-02-19 10:19 46.24252 6.11881 1370 ft 21 kts 45°
2026-02-19 10:20 46.24357 6.12035 1371 ft 22 kts 45°
2026-02-19 10:20 46.24555 6.12326 1369 ft 21 kts 45°
2026-02-19 10:20 46.24663 6.12486 1367 ft 24 kts 45°
2026-02-19 10:21 46.24761 6.12627 1365 ft 13 kts 42°
2026-02-19 10:21 46.24834 6.12683 1361 ft 3 kts 20°
2026-02-19 10:21 46.24837 6.12684 1361 ft 0 kts 20°
2026-02-19 10:23 46.24846 6.12690 1363 ft 3 kts 24°
2026-02-19 10:23 46.24873 6.12722 1362 ft 6 kts 48°
2026-02-19 10:24 46.24898 6.12777 1362 ft 7 kts 59°
2026-02-19 10:24 46.24966 6.12852 1363 ft 7 kts
2026-02-19 10:24 46.24987 6.12845 1363 ft 0 kts 342°
2026-02-19 10:26 46.24992 6.12840 1362 ft 2 kts 328°
2026-02-19 10:26 46.24999 6.12814 1363 ft 4 kts 282°
2026-02-19 10:27 46.25000 6.12749 1363 ft 8 kts 278°
2026-02-19 10:27 46.25014 6.12677 1363 ft 6 kts 261°
2026-02-19 10:27 46.24990 6.12629 1362 ft 7 kts 225°
2026-02-19 10:27 46.24986 6.12624 1364 ft 0 kts 224°
2026-02-19 10:30 46.24910 6.12514 1365 ft 50 kts 225°
2026-02-19 10:30 46.24474 6.11874 1371 ft 126 kts 225°
2026-02-19 10:30 46.23741 6.10790 1744 ft 160 kts 226°
2026-02-19 10:31 46.22987 6.09622 2849 ft 161 kts 225°
2026-02-19 10:31 46.22158 6.08344 3299 ft 191 kts 225°
2026-02-19 10:31 46.21151 6.06874 3796 ft 217 kts 225°
2026-02-19 10:31 46.20042 6.05300 4650 ft 230 kts 226°
2026-02-19 10:32 46.18885 6.03631 5574 ft 238 kts 227°
2026-02-19 10:32 46.16524 6.00208 7630 ft 245 kts 229°
2026-02-19 10:32 46.15311 5.98407 8387 ft 254 kts 231°
2026-02-19 10:33 46.14081 5.96589 9112 ft 260 kts 227°
2026-02-19 10:33 46.12681 5.94905 10040 ft 265 kts 223°
2026-02-19 10:33 46.11249 5.93098 10511 ft 283 kts 229°
2026-02-19 10:33 46.10028 5.90772 10845 ft 300 kts 244°
2026-02-19 10:34 46.09394 5.87851 11232 ft 315 kts 264°
2026-02-19 10:34 46.09635 5.84674 11816 ft 328 kts 287°
2026-02-19 10:34 46.10853 5.81840 12600 ft 341 kts 311°
2026-02-19 10:34 46.12863 5.79909 13313 ft 358 kts 334°
2026-02-19 10:35 46.15359 5.79263 14053 ft 374 kts 358°
2026-02-19 10:35 46.17945 5.80056 14783 ft 389 kts 19°
2026-02-19 10:35 46.20206 5.82181 15505 ft 400 kts 41°
2026-02-19 10:35 46.21873 5.85437 16245 ft 408 kts 63°
2026-02-19 10:36 46.22756 5.89353 16901 ft 415 kts 77°
2026-02-19 10:36 46.24426 5.97406 17690 ft 423 kts 68°
2026-02-19 10:36 46.25590 6.01377 17689 ft 431 kts 65°
2026-02-19 10:37 46.26985 6.05185 17680 ft 428 kts 54°
2026-02-19 10:37 46.28925 6.08428 17695 ft 425 kts 44°
2026-02-19 10:37 46.31056 6.11400 17692 ft 425 kts 41°
2026-02-19 10:37 46.33186 6.14279 17691 ft 425 kts 41°
2026-02-19 10:38 46.35357 6.17202 17688 ft 425 kts 41°
2026-02-19 10:38 46.37532 6.20097 17684 ft 425 kts 40°
2026-02-19 10:38 46.39733 6.22961 17682 ft 425 kts 40°
2026-02-19 10:38 46.41934 6.25823 17660 ft 427 kts 40°
2026-02-19 10:39 46.44135 6.28745 17657 ft 430 kts 40°
2026-02-19 10:39 46.46352 6.31715 17651 ft 433 kts 41°
2026-02-19 10:39 46.48558 6.34678 17653 ft 432 kts 40°
2026-02-19 10:39 46.50772 6.37651 17645 ft 434 kts 41°
2026-02-19 10:40 46.52980 6.40623 17658 ft 432 kts 41°
2026-02-19 10:40 46.55431 6.44779 17640 ft 436 kts 59°
2026-02-19 10:40 46.56546 6.48853 17641 ft 434 kts 78°
2026-02-19 10:41 46.56784 6.53210 17651 ft 428 kts 91°
2026-02-19 10:41 46.56676 6.57524 17648 ft 426 kts 93°
2026-02-19 10:41 46.56537 6.61814 17648 ft 425 kts 93°
2026-02-19 10:41 46.56407 6.66110 17654 ft 425 kts 93°
2026-02-19 10:42 46.56286 6.70405 17645 ft 426 kts 93°
2026-02-19 10:42 46.56170 6.74712 17646 ft 426 kts 93°
2026-02-19 10:42 46.56057 6.79007 17645 ft 426 kts 93°
2026-02-19 10:42 46.55971 6.83305 17646 ft 426 kts 90°
2026-02-19 10:43 46.56351 6.87565 17650 ft 426 kts 74°
2026-02-19 10:43 46.57535 6.91425 17651 ft 424 kts 57°
2026-02-19 10:43 46.59190 6.94971 17651 ft 424 kts 52°
2026-02-19 10:43 46.61009 6.98342 17644 ft 423 kts 49°
2026-02-19 10:44 46.62893 7.01621 17644 ft 423 kts 48°
2026-02-19 10:44 46.66696 7.08170 17646 ft 424 kts 48°
2026-02-19 10:44 46.68575 7.11470 17642 ft 423 kts 49°
2026-02-19 10:45 46.70441 7.14794 17641 ft 424 kts 49°
2026-02-19 10:45 46.72297 7.18137 17642 ft 423 kts 49°
2026-02-19 10:45 46.74144 7.21483 17646 ft 424 kts 50°
2026-02-19 10:45 46.75987 7.24835 17642 ft 425 kts 50°
2026-02-19 10:46 46.77843 7.28217 17638 ft 428 kts 49°
2026-02-19 10:46 46.79706 7.31605 17635 ft 428 kts 49°
2026-02-19 10:46 46.81543 7.34959 17625 ft 429 kts 50°
2026-02-19 10:46 46.83396 7.38349 17638 ft 424 kts 50°
2026-02-19 10:47 46.85228 7.41705 17638 ft 421 kts 50°
2026-02-19 10:47 46.87056 7.45047 17638 ft 420 kts 50°
2026-02-19 10:47 46.88876 7.48391 17635 ft 420 kts 50°
2026-02-19 10:47 46.90685 7.51723 17623 ft 419 kts 50°
2026-02-19 10:48 46.92497 7.55067 17626 ft 420 kts 50°
2026-02-19 10:48 46.96140 7.61789 17624 ft 421 kts 51°
2026-02-19 10:48 46.97957 7.65149 17622 ft 421 kts 51°
2026-02-19 10:49 46.99777 7.68519 17624 ft 421 kts 51°
2026-02-19 10:49 47.01574 7.71840 17624 ft 421 kts 51°
2026-02-19 10:49 47.03392 7.75209 17623 ft 421 kts 51°
2026-02-19 10:49 47.05213 7.78588 17622 ft 421 kts 51°
2026-02-19 10:50 47.07027 7.81958 17620 ft 421 kts 51°
2026-02-19 10:50 47.08843 7.85335 17620 ft 421 kts 51°
2026-02-19 10:50 47.10657 7.88712 17623 ft 421 kts 51°
2026-02-19 10:50 47.12469 7.92099 17629 ft 422 kts 52°
2026-02-19 10:51 47.14053 7.95735 17640 ft 423 kts 62°
2026-02-19 10:51 47.15356 7.99615 17637 ft 423 kts 64°
2026-02-19 10:51 47.16605 8.03536 17630 ft 423 kts 65°
2026-02-19 10:51 47.17849 8.07460 17638 ft 423 kts 65°
2026-02-19 10:52 47.19095 8.11379 17643 ft 423 kts 65°
2026-02-19 10:52 47.21761 8.19020 17638 ft 423 kts 53°
2026-02-19 10:52 47.23826 8.22052 17641 ft 420 kts 34°
2026-02-19 10:53 47.26418 8.23954 17623 ft 416 kts 15°
2026-02-19 10:53 47.29239 8.24600 17161 ft 407 kts 356°
2026-02-19 10:53 47.31988 8.23905 16647 ft 396 kts 338°
2026-02-19 10:53 47.34398 8.22094 16128 ft 386 kts 321°
2026-02-19 10:54 47.36307 8.19410 15604 ft 376 kts 306°
2026-02-19 10:54 47.37808 8.16276 15128 ft 370 kts 302°
2026-02-19 10:54 47.39400 8.13315 14634 ft 369 kts 311°
2026-02-19 10:54 47.41432 8.10988 14139 ft 371 kts 326°
2026-02-19 10:55 47.43696 8.09178 13635 ft 369 kts 329°
2026-02-19 10:55 47.45943 8.07501 13111 ft 365 kts 330°
2026-02-19 10:55 47.48346 8.06282 12610 ft 369 kts 348°
2026-02-19 10:55 47.50920 8.06475 12084 ft 375 kts 12°
2026-02-19 10:56 47.53277 8.08135 11624 ft 379 kts 36°
2026-02-19 10:56 47.55764 8.14576 11254 ft 356 kts 87°
2026-02-19 10:56 47.55482 8.18066 11115 ft 326 kts 114°
2026-02-19 10:57 47.54299 8.20648 10957 ft 286 kts 146°
2026-02-19 10:57 47.52622 8.21759 10832 ft 265 kts 179°
2026-02-19 10:57 47.50765 8.21650 10756 ft 263 kts 191°
2026-02-19 10:57 47.48976 8.21196 10627 ft 266 kts 197°
2026-02-19 10:58 47.47227 8.20353 10515 ft 263 kts 205°
2026-02-19 10:58 47.45480 8.19522 10396 ft 266 kts 192°
2026-02-19 10:58 47.43624 8.19733 10260 ft 276 kts 165°
2026-02-19 10:58 47.41991 8.21280 10143 ft 287 kts 136°
2026-02-19 10:59 47.41016 8.23868 10014 ft 294 kts 106°
2026-02-19 10:59 47.40980 8.26875 9887 ft 297 kts 76°
2026-02-19 10:59 47.41896 8.29559 9768 ft 294 kts 46°
2026-02-19 10:59 47.43521 8.31306 9619 ft 287 kts 18°
2026-02-19 11:00 47.45441 8.31781 9376 ft 277 kts 351°
2026-02-19 11:00 47.49143 8.30662 8906 ft 272 kts 340°
2026-02-19 11:00 47.50896 8.29624 8646 ft 264 kts 322°
2026-02-19 11:01 47.52304 8.27972 8407 ft 261 kts 312°
2026-02-19 11:01 47.53627 8.26146 8154 ft 259 kts 310°
2026-02-19 11:01 47.54936 8.24311 7898 ft 258 kts 310°
2026-02-19 11:01 47.56235 8.22501 7630 ft 256 kts 310°
2026-02-19 11:02 47.57535 8.20699 7364 ft 256 kts 311°
2026-02-19 11:02 47.58840 8.18905 7145 ft 256 kts 313°
2026-02-19 11:02 47.60351 8.17459 6876 ft 264 kts 332°
2026-02-19 11:02 47.62197 8.17049 6643 ft 276 kts
2026-02-19 11:03 47.63989 8.17996 6458 ft 273 kts 31°
2026-02-19 11:03 47.65384 8.19841 6311 ft 264 kts 44°
2026-02-19 11:03 47.66549 8.21873 6236 ft 260 kts 56°
2026-02-19 11:03 47.67158 8.24336 6135 ft 252 kts 90°
2026-02-19 11:04 47.66925 8.26810 6037 ft 234 kts 116°
2026-02-19 11:04 47.65198 8.30320 5683 ft 196 kts 147°
2026-02-19 11:04 47.64208 8.31659 5550 ft 190 kts 147°
2026-02-19 11:05 47.63254 8.32967 5464 ft 183 kts 147°
2026-02-19 11:05 47.62329 8.34241 5327 ft 180 kts 147°
2026-02-19 11:05 47.61405 8.35513 5118 ft 181 kts 146°
2026-02-19 11:05 47.60474 8.36792 4846 ft 183 kts 146°
2026-02-19 11:06 47.59540 8.38077 4612 ft 184 kts 146°
2026-02-19 11:06 47.58613 8.39350 4386 ft 185 kts 145°
2026-02-19 11:06 47.57661 8.40655 4080 ft 187 kts 143°
2026-02-19 11:06 47.56714 8.41956 3799 ft 184 kts 142°
2026-02-19 11:07 47.55793 8.43223 3560 ft 178 kts 141°
2026-02-19 11:07 47.54896 8.44452 3322 ft 173 kts 140°
2026-02-19 11:07 47.54048 8.45614 3097 ft 157 kts 139°
2026-02-19 11:07 47.53287 8.46659 2892 ft 142 kts 138°
2026-02-19 11:08 47.52590 8.47614 2692 ft 132 kts 138°
2026-02-19 11:08 47.51256 8.49441 2316 ft 131 kts 137°
2026-02-19 11:08 47.50584 8.50361 2113 ft 131 kts 136°
2026-02-19 11:09 47.49907 8.51287 1902 ft 130 kts 137°
2026-02-19 11:09 47.49252 8.52188 1723 ft 130 kts 137°
2026-02-19 11:09 47.48591 8.53095 1528 ft 129 kts 138°
2026-02-19 11:09 47.47934 8.53990 1410 ft 125 kts 138°
2026-02-19 11:10 47.47400 8.54714 1409 ft 79 kts 137°
2026-02-19 11:10 47.47131 8.55081 1408 ft 27 kts 137°
2026-02-19 11:10 47.47033 8.55215 1407 ft 19 kts 137°
2026-02-19 11:10 47.46941 8.55340 1410 ft 17 kts 137°
2026-02-19 11:11 47.46851 8.55462 1409 ft 18 kts 137°
2026-02-19 11:11 47.46756 8.55578 1411 ft 18 kts 144°
2026-02-19 11:11 47.46642 8.55660 1404 ft 19 kts 161°
2026-02-19 11:11 47.46518 8.55705 1409 ft 19 kts 168°
2026-02-19 11:12 47.46395 8.55754 1404 ft 14 kts 153°
2026-02-19 11:12 47.46243 8.55947 1410 ft 16 kts 137°
2026-02-19 11:12 47.46147 8.55998 1404 ft 15 kts 184°
2026-02-19 11:13 47.46043 8.55982 1409 ft 15 kts 186°
2026-02-19 11:13 47.45951 8.55957 1415 ft 10 kts 213°
2026-02-19 11:13 47.45939 8.55857 1410 ft 8 kts 271°
2026-02-19 11:13 47.45954 8.55824 1413 ft 4 kts 321°
2026-02-19 11:14 47.45994 8.55825 1405 ft 8 kts
2026-02-19 11:14 47.46016 8.55829 1406 ft 2 kts
2026-02-19 11:14 47.46031 8.55832 1404 ft 0 kts
2026-02-19 11:14 47.46034 8.55832 1404 ft 0 kts